period_start,C,m1,H,J0,J1,J2,J3,J4,J5,JA,JB,JC,JD,JJ,JK,JN,#
2014-03-14 00:00:40,0.54,12.22,0.17,23.45,28.50,31.33,5.89,33.00,1006.36,2032.01,996.18,1420.04,1534.92,349.33,319.60,33.22,0000 0000 0000 0000 000000
2014-03-14 00:01:40,0.45,12.22,0.00,23.46,28.50,31.35,5.78,32.71,1006.36,2032.01,996.05,1419.96,1534.55,349.73,319.95,33.23,0000 0000 0000 0000 000000
2014-03-14 00:02:41,0.43,12.22,0.00,23.47,28.50,31.33,5.90,33.04,1006.35,2032.02,995.85,1419.50,1534.21,349.89,320.08,33.23,0000 0000 0000 0000 000000
2014-03-14 00:03:41,0.69,12.23,0.00,23.47,28.50,31.34,5.98,32.83,1006.33,2032.01,995.36,1419.20,1534.08,349.59,320.00,33.24,0000 0000 0000 0000 000000
2014-03-14 00:04:41,0.69,12.23,0.00,23.47,28.50,31.34,5.84,32.71,1006.33,2032.02,995.13,1419.07,1534.01,349.06,319.05,33.24,0000 0000 0000 0000 000000
2014-03-14 00:05:41,0.35,12.23,0.00,23.47,28.50,31.34,6.06,32.83,1006.33,2032.01,995.04,1419.02,1533.78,349.62,319.57,33.25,0000 0000 0000 0000 000000
2014-03-14 00:06:42,0.24,12.23,0.00,23.47,28.50,31.34,6.07,32.79,1006.34,2032.00,994.98,1418.91,1533.35,349.92,320.11,33.26,0000 0000 0000 0000 000000
2014-03-14 00:07:42,0.41,12.23,0.00,23.47,28.50,31.34,5.94,32.79,1006.33,2032.00,994.59,1418.57,1533.13,349.13,319.61,33.26,0000 0000 0000 0000 000000
2014-03-14 00:08:42,0.70,12.24,0.00,23.47,28.50,31.34,5.94,32.88,1006.36,2032.01,994.24,1418.23,1533.05,349.55,319.77,33.27,0000 0000 0000 0000 000000
2014-03-14 00:09:43,0.63,12.24,0.00,23.47,28.50,31.31,6.00,32.79,1006.32,2032.02,994.09,1418.08,1532.95,350.55,321.00,33.27,0000 0000 0000 0000 000000
2014-03-14 00:10:43,0.33,12.24,0.00,23.48,28.50,31.35,5.98,32.75,1006.34,2032.02,993.95,1418.03,1532.62,351.24,320.99,33.28,0000 0000 0000 0000 000000
2014-03-14 00:11:43,0.43,12.25,0.00,23.49,28.49,31.33,5.97,32.71,1006.31,2032.05,993.51,1417.96,1532.25,349.40,319.61,33.29,0000 0000 0000 0000 000000
2014-03-14 00:12:44,0.66,12.25,0.00,23.50,28.50,31.34,5.94,32.79,1006.27,2032.05,993.19,1417.52,1532.09,350.64,320.72,33.29,0000 0000 0000 0000 000000
2014-03-14 00:13:44,0.63,12.26,0.00,23.50,28.50,31.33,5.98,32.75,1006.20,2032.02,993.06,1417.22,1532.02,349.72,319.84,33.30,0000 0000 0000 0000 000000
2014-03-14 00:14:44,0.38,12.26,0.00,23.52,28.50,31.35,5.88,32.75,1006.18,2032.01,992.98,1417.08,1531.83,350.28,320.20,33.30,0000 0000 0000 0000 000000
2014-03-14 00:15:44,0.34,12.26,0.00,23.52,28.49,31.33,5.91,32.96,1006.26,2032.01,992.66,1417.02,1531.39,349.73,319.86,33.31,0000 0000 0000 0000 000000
2014-03-14 00:16:45,0.51,12.26,0.00,23.52,28.50,31.33,5.83,32.92,1006.31,2032.03,992.28,1416.91,1531.14,348.68,319.43,33.32,0000 0000 0000 0000 000000
2014-03-14 00:17:45,0.60,12.26,0.00,23.54,28.49,31.36,6.01,32.75,1006.35,2032.03,992.10,1416.54,1531.05,350.03,320.13,33.32,0000 0000 0000 0000 000000
2014-03-14 00:18:45,0.50,12.27,0.00,23.54,28.49,31.35,5.99,32.50,1006.34,2032.02,992.03,1416.22,1530.95,350.57,320.49,33.33,0000 0000 0000 0000 000000
2014-03-14 00:19:45,0.33,12.27,0.00,23.55,28.50,31.35,5.91,32.67,1006.36,2032.00,991.95,1416.08,1530.56,349.05,319.65,33.33,0000 0000 0000 0000 000000
2014-03-14 00:20:45,0.42,12.28,0.00,23.55,28.50,31.33,5.98,32.79,1006.36,2032.01,991.49,1416.01,1530.22,350.69,320.73,33.34,0000 0000 0000 0000 000000
2014-03-14 00:21:46,0.60,12.28,0.00,23.54,28.50,31.35,5.92,32.79,1006.36,2032.03,991.18,1415.86,1530.08,350.28,320.37,33.34,0000 0000 0000 0000 000000
2014-03-14 00:22:46,0.57,12.28,0.00,23.53,28.50,31.33,5.97,32.63,1006.36,2032.02,991.02,1415.45,1529.97,349.92,320.06,33.35,0000 0000 0000 0000 000000
2014-03-14 00:23:46,0.55,12.28,0.00,23.52,28.50,31.32,5.88,32.63,1006.36,2032.01,990.53,1415.17,1529.58,349.86,320.01,33.36,0000 0000 0000 0000 000000
2014-03-14 00:24:46,0.74,12.29,0.00,23.52,28.50,31.36,5.94,32.71,1006.36,2032.01,990.21,1415.06,1529.23,349.01,319.23,33.36,0000 0000 0000 0000 000000
2014-03-14 00:25:47,0.60,12.29,0.00,23.52,28.50,31.36,5.98,32.63,1006.35,2032.00,990.07,1414.98,1529.08,350.69,320.83,33.37,0000 0000 0000 0000 000000
2014-03-14 00:26:47,0.26,12.29,0.00,23.53,28.50,31.34,6.05,33.04,1006.36,2032.01,989.90,1414.68,1529.03,349.99,320.12,33.37,0000 0000 0000 0000 000000
2014-03-14 00:27:47,0.49,12.30,0.00,23.54,28.50,31.33,6.13,32.58,1006.36,2032.01,989.44,1414.29,1528.74,350.84,320.89,33.38,0000 0000 0000 0000 000000
2014-03-14 00:28:48,0.85,12.30,0.00,23.54,28.50,31.33,5.84,32.88,1006.36,2032.04,989.16,1414.10,1528.31,349.93,320.09,33.39,0000 0000 0000 0000 000000
2014-03-14 00:29:48,0.63,12.31,0.00,23.55,28.50,31.36,5.82,32.92,1006.36,2032.02,989.04,1414.03,1528.12,349.33,319.49,33.39,0000 0000 0000 0000 000000
2014-03-14 00:30:48,0.25,12.31,1.00,23.55,28.50,31.36,5.96,33.04,1006.36,2032.00,988.87,1413.97,1528.03,349.50,319.94,33.40,0000 0000 0000 0000 000000
2014-03-14 00:31:49,0.39,12.31,1.00,23.54,28.50,31.36,5.92,33.25,1006.36,2032.00,988.41,1413.56,1527.88,350.26,320.01,33.40,0000 0000 0000 0000 000000
2014-03-14 00:32:49,0.78,12.32,1.00,23.54,28.50,31.37,5.95,32.67,1006.36,2032.00,988.15,1413.22,1527.43,351.19,321.29,33.41,0000 0000 0000 0000 000000
2014-03-14 00:33:49,0.65,12.32,1.00,23.54,28.50,31.35,5.95,32.88,1006.36,2032.00,988.05,1413.08,1527.17,350.18,320.66,33.41,0000 0000 0000 0000 000000
2014-03-14 00:34:50,0.30,12.32,1.00,23.55,28.50,31.36,6.06,32.88,1006.36,2032.00,987.99,1413.03,1527.06,350.63,320.76,33.42,0000 0000 0000 0000 000000
2014-03-14 00:35:50,0.17,12.32,1.00,23.55,28.50,31.38,5.90,32.92,1006.36,2032.00,987.65,1412.96,1527.00,349.81,319.94,33.43,0000 0000 0000 0000 000000
2014-03-14 00:36:50,0.44,12.32,1.00,23.55,28.50,31.36,5.96,32.75,1006.36,2032.00,987.27,1412.62,1526.72,350.46,320.54,33.43,0000 0000 0000 0000 000000
2014-03-14 00:37:51,0.79,12.33,1.00,23.55,28.50,31.37,5.93,32.88,1006.36,2032.00,987.09,1412.25,1526.31,349.70,319.93,33.44,0000 0000 0000 0000 000000
2014-03-14 00:38:51,0.60,12.33,1.00,23.55,28.50,31.37,5.98,32.79,1006.36,2032.00,986.99,1412.09,1526.11,349.88,320.04,33.44,0000 0000 0000 0000 000000
2014-03-14 00:39:51,0.37,12.33,1.00,23.55,28.50,31.33,6.06,32.67,1006.36,2032.00,986.56,1412.02,1526.02,350.33,320.41,33.45,0000 0000 0000 0000 000000
2014-03-14 00:40:51,0.51,12.34,1.00,23.55,28.50,31.39,5.96,32.83,1006.36,2032.00,986.21,1411.85,1525.75,350.07,320.16,33.46,0000 0000 0000 0000 000000
2014-03-14 00:41:52,0.67,12.34,1.00,23.57,28.50,31.38,5.94,32.96,1006.36,2032.00,986.07,1411.42,1525.37,349.63,319.88,33.46,0000 0000 0000 0000 000000
2014-03-14 00:42:52,0.59,12.34,1.00,23.57,28.50,31.35,6.07,32.83,1006.37,2032.01,985.91,1411.16,1525.13,349.35,319.74,33.47,0000 0000 0000 0000 000000
2014-03-14 00:43:52,0.50,12.35,1.00,23.57,28.50,31.31,5.91,32.83,1006.37,2032.00,985.48,1411.05,1525.04,349.17,319.33,33.47,0000 0000 0000 0000 000000
2014-03-14 00:44:52,0.51,12.35,1.00,23.57,28.50,31.34,6.01,32.54,1006.36,2032.00,985.20,1411.00,1524.89,351.31,321.14,33.48,0000 0000 0000 0000 000000
2014-03-14 00:45:53,0.40,12.35,1.00,23.57,28.50,31.35,5.90,32.71,1006.36,2032.00,985.07,1410.83,1524.51,349.87,320.07,33.49,0000 0000 0000 0000 000000
2014-03-14 00:46:53,0.47,12.36,1.00,23.58,28.50,31.35,5.90,32.88,1006.36,2032.01,984.93,1410.39,1524.19,349.39,319.71,33.49,0000 0000 0000 0000 000000
2014-03-14 00:47:53,0.66,12.36,1.00,23.58,28.50,31.39,6.07,32.96,1006.38,2032.01,984.45,1410.14,1524.07,349.94,320.03,33.50,0000 0000 0000 0000 000000
2014-03-14 00:48:53,0.65,12.36,1.00,23.58,28.50,31.38,6.04,32.88,1006.37,2032.00,984.16,1410.05,1523.99,350.47,320.51,33.50,0000 0000 0000 0000 000000
2014-03-14 00:49:54,0.40,12.37,1.00,23.58,28.50,31.34,6.00,32.96,1006.38,2032.00,984.05,1409.98,1523.69,350.27,320.52,33.51,0000 0000 0000 0000 000000
2014-03-14 00:50:54,0.33,12.37,1.00,23.59,28.50,31.34,5.99,32.79,1006.37,2032.00,984.01,1409.74,1523.26,350.11,320.00,33.51,0000 0000 0000 0000 000000
2014-03-14 00:51:54,0.42,12.37,1.00,23.59,28.50,31.33,5.77,32.54,1006.38,2032.00,983.65,1409.34,1523.09,349.16,319.29,33.52,0000 0000 0000 0000 000000
2014-03-14 00:52:54,0.74,12.38,1.00,23.59,28.50,31.35,5.83,32.71,1006.39,2032.00,983.24,1409.12,1523.01,349.92,319.99,33.53,0000 0000 0000 0000 000000
2014-03-14 00:53:55,0.60,12.38,1.00,23.60,28.51,31.37,6.02,33.04,1006.38,2032.00,983.09,1409.04,1522.81,350.63,320.63,33.53,0000 0000 0000 0000 000000
2014-03-14 00:54:55,0.35,12.38,1.00,23.60,28.51,31.34,6.06,32.92,1006.42,2032.01,983.02,1408.96,1522.36,351.10,321.08,33.54,0000 0000 0000 0000 000000
2014-03-14 00:55:55,0.29,12.38,1.00,23.60,28.52,31.40,6.13,32.79,1006.44,2032.00,982.72,1408.69,1522.14,351.02,321.09,33.54,0000 0000 0000 0000 000000
2014-03-14 00:56:55,0.68,12.39,1.00,23.61,28.52,31.36,6.01,32.79,1006.45,2032.00,982.28,1408.33,1522.04,350.03,319.91,33.55,0000 0000 0000 0000 000000
2014-03-14 00:57:55,0.69,12.39,1.00,23.62,28.52,31.36,6.08,32.75,1006.47,2032.01,982.10,1408.12,1522.00,350.59,320.61,33.56,0000 0000 0000 0000 000000
2014-03-14 00:58:55,0.39,12.39,1.00,23.62,28.52,31.34,6.03,32.63,1006.61,2032.02,982.02,1408.04,1521.68,350.00,320.10,33.56,0000 0000 0000 0000 000000
2014-03-14 00:59:56,0.30,12.39,1.00,23.63,28.52,31.36,5.86,32.67,1006.74,2032.01,981.79,1407.98,1521.27,349.32,319.51,33.57,0000 0000 0000 0000 000000
2014-03-14 01:00:56,0.50,12.40,1.00,23.64,28.52,31.36,6.04,32.79,1006.77,2032.02,981.33,1407.78,1521.10,350.17,320.25,33.57,0000 0000 0000 0000 000000
2014-03-14 01:01:56,0.67,12.40,1.00,23.65,28.52,31.38,6.04,32.88,1006.75,2032.00,981.12,1407.36,1521.00,350.32,320.42,33.58,0000 0000 0000 0000 000000
2014-03-14 01:02:57,0.56,12.40,1.00,23.65,28.52,31.38,5.96,32.75,1006.69,2032.00,981.03,1407.14,1520.76,349.83,319.95,33.59,0000 0000 0000 0000 000000
2014-03-14 01:03:57,0.38,12.41,1.00,23.67,28.52,31.35,5.94,32.58,1006.71,2032.00,980.82,1407.05,1520.36,350.89,320.90,33.59,0000 0000 0000 0000 000000
2014-03-14 01:04:57,0.51,12.41,1.00,23.67,28.52,31.27,5.82,32.63,1006.72,2032.00,980.35,1406.98,1520.13,348.96,319.14,33.60,0000 0000 0000 0000 000000
2014-03-14 01:05:57,0.56,12.41,1.00,23.67,28.52,31.33,6.00,32.71,1006.61,2032.00,980.12,1406.69,1520.04,350.05,320.10,33.60,0000 0000 0000 0000 000000
2014-03-14 01:06:58,0.53,12.42,1.00,23.67,28.52,31.30,5.97,32.88,1006.46,2032.00,980.03,1406.33,1519.97,349.70,319.74,33.61,0000 0000 0000 0000 000000
2014-03-14 01:07:58,0.40,12.42,1.00,23.67,28.52,31.27,5.98,32.79,1006.51,2032.00,979.82,1406.13,1519.62,350.86,320.88,33.61,0000 0000 0000 0000 000000
2014-03-14 01:08:58,0.57,12.42,1.00,23.68,28.53,31.33,5.93,32.75,1006.67,2032.00,979.34,1406.04,1519.23,350.03,320.37,33.62,0000 0000 0000 0000 000000
2014-03-14 01:09:59,0.64,12.43,1.00,23.69,28.53,31.39,6.02,32.83,1006.73,2032.00,979.12,1405.98,1519.08,350.83,321.09,33.63,0000 0000 0000 0000 000000
2014-03-14 01:10:59,0.35,12.43,1.00,23.70,28.53,31.38,5.98,33.04,1006.68,2032.00,979.04,1405.65,1518.96,349.92,319.97,33.63,0000 0000 0000 0000 000000
2014-03-14 01:11:59,0.45,12.43,1.00,23.71,28.54,31.38,5.91,32.83,1006.71,2032.00,978.85,1405.25,1518.53,348.89,318.90,33.64,0000 0000 0000 0000 000000
2014-03-14 01:12:59,0.71,12.43,1.00,23.72,28.55,31.42,6.01,32.79,1006.73,2032.00,978.40,1405.09,1518.19,350.00,320.08,33.64,0000 0000 0000 0000 000000
2014-03-14 01:14:00,0.65,12.44,1.00,23.72,28.55,31.37,6.03,32.88,1006.78,2032.00,978.16,1405.03,1518.07,349.63,319.89,33.65,0000 0000 0000 0000 000000
2014-03-14 01:15:00,0.35,12.44,1.00,23.72,28.55,31.33,6.02,32.75,1006.78,2032.00,978.03,1404.81,1518.00,350.29,320.36,33.66,0000 0000 0000 0000 000000
2014-03-14 01:16:00,0.41,12.44,1.00,23.72,28.55,31.37,5.89,32.79,1006.78,2032.00,977.74,1404.38,1517.68,348.99,319.13,33.66,0000 0000 0000 0000 000000
2014-03-14 01:17:00,0.84,12.45,1.00,23.72,28.55,31.39,6.08,33.04,1006.75,2032.00,977.30,1404.14,1517.27,349.52,319.91,33.67,0000 0000 0000 0000 000000
2014-03-14 01:18:00,0.72,12.45,1.00,23.72,28.55,31.33,5.93,32.79,1006.71,2032.00,977.11,1404.05,1517.10,349.84,319.89,33.67,0000 0000 0000 0000 000000
2014-03-14 01:19:01,0.33,12.45,1.00,23.72,28.55,31.33,6.04,32.67,1006.68,2032.00,977.02,1404.00,1516.99,350.46,320.41,33.68,0000 0000 0000 0000 000000
2014-03-14 01:20:01,0.19,12.45,1.00,23.72,28.55,31.29,5.97,32.75,1006.70,2032.00,976.77,1403.85,1516.75,349.90,319.94,33.68,0000 0000 0000 0000 000000
2014-03-14 01:21:01,0.60,12.46,1.00,23.73,28.55,31.34,5.98,32.88,1006.74,2032.00,976.33,1403.42,1516.31,349.39,319.38,33.69,0000 0000 0000 0000 000000
2014-03-14 01:22:02,0.88,12.46,1.00,23.74,28.55,31.29,5.98,33.08,1006.76,2032.00,976.12,1403.18,1516.11,349.45,319.39,33.70,0000 0000 0000 0000 000000
2014-03-14 01:23:02,0.47,12.47,1.00,23.75,28.55,31.30,6.08,32.83,1006.81,2032.00,976.03,1403.06,1516.04,350.31,320.32,33.70,0000 0000 0000 0000 000000
2014-03-14 01:24:02,0.19,12.47,1.00,23.75,28.56,31.34,6.00,32.88,1006.80,2032.00,975.87,1403.01,1515.98,351.48,321.38,33.71,0000 0000 0000 0000 000000
2014-03-14 01:25:02,0.30,12.47,1.00,23.77,28.57,31.40,6.02,32.58,1006.78,2032.00,975.43,1402.81,1515.62,350.61,320.55,33.71,0000 0000 0000 0000 000000
2014-03-14 01:26:03,0.81,12.47,1.00,23.78,28.57,31.41,5.95,32.58,1006.78,2032.00,975.16,1402.35,1515.23,350.53,320.19,33.72,0000 0000 0000 0000 000000
2014-03-14 01:27:03,0.75,12.48,1.00,23.79,28.57,31.36,5.99,32.83,1006.85,2032.00,975.05,1402.12,1515.08,350.96,320.87,33.73,0000 0000 0000 0000 000000
2014-03-14 01:28:03,0.34,12.48,1.00,23.80,28.57,31.35,5.85,32.88,1006.80,2032.00,974.81,1402.04,1515.01,349.58,319.59,33.73,0000 0000 0000 0000 000000
2014-03-14 01:29:03,0.39,12.48,1.00,23.81,28.57,31.34,6.02,32.92,1006.71,2032.00,974.34,1401.96,1514.67,350.27,320.19,33.74,0000 0000 0000 0000 000000
2014-03-14 01:30:04,0.70,12.49,1.00,23.82,28.57,31.35,5.85,32.54,1006.59,2032.00,974.12,1401.55,1514.26,350.17,320.09,33.74,0000 0000 0000 0000 000000
2014-03-14 01:31:04,0.70,12.49,1.00,23.82,28.57,31.37,5.88,32.96,1006.47,2032.00,974.00,1401.22,1514.09,349.96,320.12,33.75,0000 0000 0000 0000 000000
2014-03-14 01:32:04,0.44,12.49,1.00,23.82,28.57,31.38,5.91,33.04,1006.47,2032.00,973.68,1401.08,1514.02,350.44,320.30,33.76,0000 0000 0000 0000 000000
2014-03-14 01:33:04,0.53,12.50,1.00,23.82,28.58,31.34,5.99,32.63,1006.55,2032.00,973.29,1401.02,1513.79,350.39,320.23,33.76,0000 0000 0000 0000 000000
2014-03-14 01:34:04,0.51,12.50,1.00,23.82,28.58,31.41,6.02,32.67,1006.60,2032.00,973.10,1400.95,1513.36,350.44,320.30,33.77,0000 0000 0000 0000 000000
2014-03-14 01:35:04,0.42,12.50,1.00,23.82,28.59,31.40,5.99,32.50,1006.61,2032.00,973.03,1400.58,1513.13,350.78,320.42,33.77,0000 0000 0000 0000 000000
2014-03-14 01:36:05,0.51,12.51,1.00,23.82,28.60,31.35,6.01,32.54,1006.59,2032.00,972.90,1400.25,1513.04,349.67,319.53,33.78,0000 0000 0000 0000 000000
2014-03-14 01:37:05,0.42,12.51,1.00,23.82,28.60,31.35,5.88,32.63,1006.50,2032.00,972.45,1400.09,1512.92,350.04,319.43,33.78,0000 0000 0000 0000 000000
2014-03-14 01:38:05,0.63,12.51,1.00,23.82,28.60,31.38,5.93,32.71,1006.53,2032.00,972.17,1400.03,1512.61,350.08,319.94,33.79,0000 0000 0000 0000 000000
2014-03-14 01:39:05,0.50,12.51,1.00,23.82,28.60,31.39,5.91,32.83,1006.45,2032.00,972.04,1399.92,1512.25,349.96,319.80,33.80,0000 0000 0000 0000 000000
2014-03-14 01:40:05,0.39,12.52,1.00,23.82,28.60,31.37,6.03,32.63,1006.59,2032.00,971.86,1399.63,1512.09,350.95,320.75,33.80,0000 0000 0000 0000 000000
2014-03-14 01:41:06,0.52,12.52,1.00,23.84,28.60,31.39,5.97,32.88,1006.70,2032.00,971.45,1399.27,1512.01,349.92,319.83,33.81,0000 0000 0000 0000 000000
2014-03-14 01:42:06,0.72,12.52,1.00,23.84,28.60,31.35,5.92,32.71,1006.62,2032.00,971.17,1399.09,1511.80,349.60,319.50,33.81,0000 0000 0000 0000 000000
2014-03-14 01:43:06,0.52,12.53,1.00,23.86,28.61,31.35,6.06,32.71,1006.52,2031.99,971.06,1399.02,1511.35,350.10,319.92,33.82,0000 0000 0000 0000 000000
2014-03-14 01:44:07,0.35,12.53,1.00,23.87,28.62,31.37,5.95,32.46,1006.49,2031.99,970.94,1398.79,1511.12,350.46,320.22,33.83,0000 0000 0000 0000 000000
2014-03-14 01:45:07,0.42,12.53,1.00,23.87,28.62,31.37,5.92,32.50,1006.48,2031.99,970.54,1398.36,1511.00,349.77,319.59,33.83,0000 0000 0000 0000 000000
2014-03-14 01:46:07,0.84,12.54,1.00,23.87,28.62,31.34,5.93,32.58,1006.50,2031.99,970.19,1398.13,1510.77,350.93,320.65,33.84,0000 0000 0000 0000 000000
2014-03-14 01:47:08,0.62,12.54,1.00,23.87,28.62,31.41,6.08,32.63,1006.50,2031.99,970.06,1398.05,1510.34,351.05,320.76,33.84,0000 0000 0000 0000 000000
2014-03-14 01:48:08,0.38,12.54,1.00,23.88,28.62,31.40,5.94,32.83,1006.49,2031.99,969.91,1397.96,1510.13,349.33,319.18,33.85,0000 0000 0000 0000 000000
2014-03-14 01:49:08,0.34,12.54,1.00,23.88,28.62,31.37,5.95,33.04,1006.42,2031.98,969.46,1397.59,1510.03,350.32,320.06,33.85,0000 0000 0000 0000 000000
2014-03-14 01:50:08,0.79,12.55,1.00,23.88,28.63,31.43,5.88,32.58,1006.40,2031.96,969.17,1397.24,1509.80,349.83,319.65,33.86,0000 0000 0000 0000 000000
2014-03-14 01:51:08,0.65,12.55,1.00,23.87,28.64,31.43,5.93,32.67,1006.39,2031.96,969.05,1397.09,1509.36,349.96,319.73,33.87,0000 0000 0000 0000 000000
2014-03-14 01:52:09,0.41,12.56,1.00,23.88,28.64,31.39,5.86,32.71,1006.38,2031.98,968.91,1397.02,1509.13,349.37,319.19,33.87,0000 0000 0000 0000 000000
2014-03-14 01:53:09,0.31,12.56,1.00,23.89,28.65,31.41,5.93,32.67,1006.38,2031.97,968.46,1396.93,1509.05,349.01,319.07,33.88,0000 0000 0000 0000 000000
2014-03-14 01:54:09,0.61,12.56,1.00,23.90,28.65,31.44,5.89,32.75,1006.37,2031.97,968.18,1396.50,1508.95,349.84,319.60,33.88,0000 0000 0000 0000 000000
2014-03-14 01:55:10,0.68,12.57,1.00,23.92,28.65,31.44,5.98,33.00,1006.37,2031.96,968.06,1396.19,1508.64,349.72,319.01,33.89,0000 0000 0000 0000 000000
2014-03-14 01:56:10,0.47,12.57,1.00,23.92,28.65,31.43,5.89,32.96,1006.38,2031.94,967.97,1396.07,1508.28,350.06,319.87,33.90,0000 0000 0000 0000 000000
2014-03-14 01:57:10,0.33,12.57,1.00,23.92,28.65,31.39,6.00,32.63,1006.36,2031.97,967.55,1396.01,1508.10,349.14,318.92,33.90,0000 0000 0000 0000 000000
2014-03-14 01:58:10,0.65,12.57,1.00,23.92,28.65,31.37,5.96,32.75,1006.36,2031.96,967.20,1395.95,1508.03,349.71,319.44,33.91,0000 0000 0000 0000 000000
2014-03-14 01:59:10,0.40,12.58,1.00,23.92,28.67,31.43,5.88,32.71,1006.36,2031.94,967.06,1395.59,1507.82,349.98,319.76,33.91,0000 0000 0000 0000 000000
2014-03-14 02:00:10,0.51,12.58,1.00,23.92,28.67,31.40,6.06,32.75,1006.36,2031.94,966.86,1395.24,1507.37,349.25,319.02,33.92,0000 0000 0000 0000 000000
2014-03-14 02:01:11,0.68,12.58,1.00,23.92,28.67,31.42,5.81,32.88,1006.36,2031.91,966.41,1395.08,1507.14,347.76,317.58,33.92,0000 0000 0000 0000 000000
2014-03-14 02:02:11,0.67,12.59,1.00,23.92,28.67,31.44,5.88,32.71,1006.36,2031.90,966.15,1395.01,1507.04,351.27,320.86,33.93,0000 0000 0000 0000 000000
2014-03-14 02:03:11,0.34,12.59,1.00,23.92,28.67,31.42,6.07,33.00,1006.36,2031.83,966.05,1394.75,1506.82,350.16,319.85,33.94,0000 0000 0000 0000 000000
2014-03-14 02:04:11,0.32,12.59,1.00,23.92,28.67,31.46,6.07,32.79,1006.36,2031.88,965.89,1394.30,1506.37,350.23,319.92,33.94,0000 0000 0000 0000 000000
2014-03-14 02:05:11,0.77,12.60,1.00,23.92,28.68,31.46,5.78,32.71,1006.36,2031.91,965.49,1394.10,1506.15,347.88,318.04,33.95,0000 0000 0000 0000 000000
2014-03-14 02:06:11,0.78,12.60,1.00,23.92,28.68,31.44,5.98,32.67,1006.37,2031.91,965.18,1394.04,1506.05,350.99,320.61,33.95,0000 0000 0000 0000 000000
2014-03-14 02:07:12,0.37,12.60,1.00,23.92,28.69,31.48,5.98,32.75,1006.36,2031.84,965.05,1393.94,1505.90,350.58,320.24,33.96,0000 0000 0000 0000 000000
2014-03-14 02:08:12,0.12,12.60,1.00,23.92,28.70,31.43,5.95,32.58,1006.38,2031.73,964.85,1393.55,1505.40,349.22,318.99,33.97,0000 0000 0000 0000 000000
2014-03-14 02:09:12,0.70,12.61,1.00,23.92,28.70,31.40,5.86,32.50,1006.37,2031.61,964.40,1393.24,1505.15,350.33,319.94,33.97,0000 0000 0000 0000 000000
2014-03-14 02:10:12,0.59,12.61,1.00,23.92,28.70,31.43,5.98,32.71,1006.37,2031.61,964.16,1393.08,1505.04,349.94,319.65,33.98,0000 0000 0000 0000 000000
2014-03-14 02:11:13,0.51,12.61,1.00,23.92,28.70,31.51,5.95,32.58,1006.38,2031.54,964.05,1393.01,1504.95,350.67,320.32,33.98,0000 0000 0000 0000 000000
2014-03-14 02:12:13,0.05,12.61,1.00,23.92,28.70,31.52,5.96,32.63,1006.38,2031.51,963.87,1392.83,1504.56,349.67,319.30,33.99,0000 0000 0000 0000 000000
2014-03-14 02:13:13,0.44,12.62,1.00,23.92,28.70,31.47,6.03,32.83,1006.39,2031.31,963.36,1392.38,1504.22,350.16,320.11,34.00,0000 0000 0000 0000 000000
2014-03-14 02:14:13,0.79,12.62,1.00,23.92,28.71,31.47,5.92,32.79,1006.42,2031.25,963.13,1392.15,1504.08,349.95,320.01,34.00,0000 0000 0000 0000 000000
2014-03-14 02:15:14,0.48,12.62,1.00,23.92,28.72,31.52,5.99,32.63,1006.38,2031.23,963.04,1392.05,1504.02,351.12,320.35,34.01,0000 0000 0000 0000 000000
2014-03-14 02:16:14,0.06,12.62,1.00,23.92,28.72,31.53,5.91,32.96,1006.36,2031.21,962.91,1391.99,1503.84,349.49,319.54,34.01,0000 0000 0000 0000 000000
2014-03-14 02:17:14,0.21,12.63,1.00,23.92,28.72,31.47,5.88,32.96,1006.36,2031.14,962.46,1391.71,1503.35,349.55,319.30,34.02,0000 0000 0000 0000 000000
2014-03-14 02:18:14,0.90,12.63,1.00,23.92,28.72,31.49,5.95,33.04,1006.37,2031.10,962.17,1391.32,1503.13,350.72,320.04,34.02,0000 0000 0000 0000 000000
2014-03-14 02:19:15,0.68,12.63,1.00,23.92,28.72,31.48,6.00,32.83,1006.38,2031.09,962.05,1391.11,1502.98,350.61,320.26,34.03,0000 0000 0000 0000 000000
2014-03-14 02:20:15,0.35,12.64,1.00,23.92,28.72,31.46,5.88,32.75,1006.37,2031.08,961.89,1391.03,1502.58,349.60,319.45,34.04,0000 0000 0000 0000 000000
2014-03-14 02:21:15,0.34,12.64,1.00,23.92,28.72,31.47,5.84,32.71,1006.36,2031.07,961.46,1390.92,1502.24,349.48,319.12,34.04,0000 0000 0000 0000 000000
2014-03-14 02:22:15,0.73,12.64,1.00,23.92,28.72,31.47,5.99,32.71,1006.37,2031.05,961.17,1390.53,1502.08,350.01,319.71,34.05,0000 0000 0000 0000 000000
2014-03-14 02:23:15,0.67,12.65,1.00,23.94,28.73,31.48,5.96,32.58,1006.36,2031.03,961.06,1390.20,1502.01,350.19,319.85,34.05,0000 0000 0000 0000 000000
2014-03-14 02:24:16,0.39,12.65,1.00,23.95,28.74,31.45,5.77,32.83,1006.37,2031.02,960.95,1390.07,1501.88,349.68,319.39,34.06,0000 0000 0000 0000 000000
2014-03-14 02:25:16,0.22,12.65,1.00,23.95,28.75,31.48,5.88,32.79,1006.38,2031.05,960.61,1390.02,1501.44,349.18,318.54,34.07,0000 0000 0000 0000 000000
2014-03-14 02:26:16,0.63,12.65,1.00,23.95,28.75,31.51,5.92,32.96,1006.37,2031.03,960.24,1389.96,1501.17,350.26,319.92,34.07,0000 0000 0000 0000 000000
2014-03-14 02:27:16,0.57,12.66,1.00,23.95,28.75,31.55,6.06,32.92,1006.39,2031.02,960.09,1389.58,1501.06,350.90,320.51,34.08,0000 0000 0000 0000 000000
2014-03-14 02:28:17,0.53,12.66,1.00,23.95,28.75,31.56,5.90,33.08,1006.38,2031.02,960.01,1389.21,1500.96,349.71,319.42,34.08,0000 0000 0000 0000 000000
2014-03-14 02:29:17,0.39,12.66,1.00,23.95,28.75,31.54,5.92,33.29,1006.37,2031.01,959.67,1389.07,1500.51,350.23,319.89,34.09,0000 0000 0000 0000 000000
2014-03-14 02:30:17,0.64,12.67,1.00,23.95,28.75,31.57,5.90,33.04,1006.38,2031.00,959.26,1388.99,1500.20,350.35,320.00,34.09,0000 0000 0000 0000 000000
2014-03-14 02:31:17,0.67,12.67,1.00,23.94,28.75,31.56,5.90,33.13,1006.36,2031.00,959.09,1388.72,1500.06,349.17,318.92,34.10,0000 0000 0000 0000 000000
2014-03-14 02:32:18,0.42,12.67,1.00,23.93,28.75,31.59,5.98,33.13,1006.37,2031.01,959.01,1388.30,1499.96,350.30,319.79,34.11,0000 0000 0000 0000 000000
2014-03-14 02:33:18,0.50,12.68,1.00,23.92,28.76,31.64,5.92,33.00,1006.37,2031.00,958.83,1388.10,1499.58,348.70,318.52,34.11,0000 0000 0000 0000 000000
2014-03-14 02:34:18,0.50,12.68,1.00,23.92,28.77,31.62,5.88,32.96,1006.36,2031.00,958.39,1388.03,1499.24,349.00,319.58,34.12,0000 0000 0000 0000 000000
2014-03-14 02:35:19,0.69,12.68,1.00,23.92,28.77,31.54,5.90,33.13,1006.36,2031.00,958.14,1387.99,1499.10,350.26,319.94,34.12,0000 0000 0000 0000 000000
2014-03-14 02:36:19,0.37,12.69,1.00,23.92,28.77,31.56,5.97,33.00,1006.36,2031.00,958.04,1387.68,1499.02,349.77,319.49,34.13,0000 0000 0000 0000 000000